GUARD ISLAND AK US NWS current weather conditions

sailwx.info

Wind from 110 at 14 knots gusting 19

Air temperature 5.3° C
Dewpoint 5.2° C

Last reported at 2020-Jan-22 13:32 UTC.
Time now 2020-Jan-22 14:16 UTC

Location: N 55°27' W 131°53'.
View on Google Maps.

See reports from other nearby stations

  
Tides and Currents Weather Stations Pressure Air Temp Water Temp Dewpoint Dewpoint Depression Visibility Wind Speed Wind Dir Waves Ship Positions
date/time (UTC)wind fromknots sea level pressurealtimeterstation pressurevisibilityair tempwater tempwave heightnotes
2020-Jan-22 13:32 110 14 gusting 19 5.3
2020-Jan-22 13:22 110 15 gusting 19 5.2
2020-Jan-22 13:12 110 13 gusting 17 5.2
2020-Jan-22 13:02 110 12 gusting 14 5.2
2020-Jan-22 12:52 110 13 gusting 14 5.2
2020-Jan-22 12:42 110 13 gusting 18 5.2
2020-Jan-22 12:32 110 14 gusting 17 5.2
2020-Jan-22 12:22 110 13 gusting 17 5.2
2020-Jan-22 12:12 110 13 gusting 15 5.2
2020-Jan-22 12:02 110 13 gusting 15 5.2
2020-Jan-22 11:52 110 13 gusting 15 5.3
2020-Jan-22 11:42 110 13 gusting 15 5.3
2020-Jan-22 11:32 110 12 gusting 15 5.3
2020-Jan-22 11:22 110 13 gusting 15 5.2
2020-Jan-22 11:12 110 13 gusting 17 5.2
2020-Jan-22 11:02 110 14 gusting 18 5.2
2020-Jan-22 10:52 110 13 gusting 17 5.2
2020-Jan-22 10:42 110 13 gusting 15 5.3
2020-Jan-22 10:32 110 13 gusting 17 5.4
2020-Jan-22 10:22 110 11 gusting 13 5.4
2020-Jan-22 10:12 120 8 gusting 13 5.6
2020-Jan-22 10:02 120 7 gusting 12 5.7
2020-Jan-22 09:52 120 8 gusting 13 5.7
2020-Jan-22 09:42 130 8 gusting 15 5.6
2020-Jan-22 09:32 130 7 gusting 12 5.6
2020-Jan-22 09:22 130 7 gusting 11 5.6
2020-Jan-22 09:12 130 6 gusting 12 5.4
2020-Jan-22 09:02 130 6 gusting 12 5.4
2020-Jan-22 08:52 120 9 gusting 13 5.5
2020-Jan-22 08:42 120 11 gusting 13 5.5
2020-Jan-22 08:32 110 11 gusting 13 5.3
2020-Jan-22 08:22 110 12 gusting 14 5.3
2020-Jan-22 08:12 110 13 gusting 14 5.2
2020-Jan-22 08:02 110 13 gusting 15 5.2
2020-Jan-22 07:52 110 13 gusting 15 5.3
2020-Jan-22 07:42 110 13 gusting 15 5.2
2020-Jan-22 07:32 110 12 gusting 14 5.2
2020-Jan-22 07:22 110 13 gusting 14 5.2
2020-Jan-22 07:12 110 13 gusting 14 5.2
2020-Jan-22 07:02 110 12 gusting 13 5.1
2020-Jan-22 06:52 110 13 gusting 14 5.2
2020-Jan-22 06:42 110 13 gusting 14 5.1
2020-Jan-22 06:32 110 13 gusting 15 5.2
2020-Jan-22 06:22 110 13 gusting 14 5.2
2020-Jan-22 06:12 110 13 gusting 14 5.2
2020-Jan-22 06:02 110 12 gusting 15 5.1
2020-Jan-22 05:52 110 13 gusting 18 5.1
2020-Jan-22 05:42 110 13 gusting 17 5.1
2020-Jan-22 05:32 110 13 gusting 15 5.1
2020-Jan-22 05:22 110 13 gusting 15 5.1
2020-Jan-22 05:12 110 13 gusting 18 5.2
2020-Jan-22 05:02 120 13 gusting 17 5.2
2020-Jan-22 04:52 120 13 gusting 17 5.1
2020-Jan-22 04:42 110 13 gusting 17 5.0
2020-Jan-22 04:32 110 13 gusting 17 5.1
2020-Jan-22 04:22 110 13 gusting 18 5.1
2020-Jan-22 04:12 110 13 gusting 15 5.1
2020-Jan-22 04:02 110 13 gusting 15 5.1
2020-Jan-22 03:52 110 13 gusting 17 5.1
2020-Jan-22 03:42 110 13 gusting 17 5.3
2020-Jan-22 03:32 110 13 gusting 15 5.2
2020-Jan-22 03:22 100 13 gusting 17 5.2
2020-Jan-22 03:12 110 13 gusting 15 5.1
2020-Jan-22 03:02 100 13 gusting 17 5.1
2020-Jan-22 02:52 110 13 gusting 17 5.2
2020-Jan-22 02:42 110 13 gusting 18 5.1
2020-Jan-22 02:32 110 14 gusting 18 5.2
2020-Jan-22 02:22 110 14 gusting 18 5.2
2020-Jan-22 02:12 110 13 gusting 17 5.2
2020-Jan-22 02:02 110 13 gusting 17 5.3
2020-Jan-22 01:52 110 13 gusting 17 5.3
2020-Jan-22 01:42 110 13 gusting 17 5.3
2020-Jan-22 01:32 110 13 gusting 17 5.4
2020-Jan-22 01:22 110 13 gusting 17 5.4
2020-Jan-22 01:12 110 13 gusting 17 5.4
2020-Jan-22 01:02 110 13 gusting 18 5.5
2020-Jan-22 00:52 110 15 gusting 18 5.4
2020-Jan-22 00:42 100 14 gusting 19 5.6
2020-Jan-22 00:32 110 13 gusting 18 5.6
2020-Jan-22 00:22 110 12 gusting 13 5.5
2020-Jan-22 00:12 110 12 gusting 14 5.6
2020-Jan-21 23:52 080 7 gusting 11 5.1
2020-Jan-21 23:42 070 6 gusting 11 5.1
2020-Jan-21 23:32 080 6 gusting 9 5.1
2020-Jan-21 23:22 060 4 gusting 6 5.0
2020-Jan-21 23:12 060 4 gusting 6 4.9
2020-Jan-21 23:02 060 2 gusting 6 5.0
2020-Jan-21 22:52 080 5 gusting 6 4.9
2020-Jan-21 22:42 060 2 gusting 6 5.1
2020-Jan-21 22:32 040 1 gusting 2 5.2
2020-Jan-21 22:22 060 2 gusting 6 5.1
2020-Jan-21 22:12 040 0 gusting 2 5.1
2020-Jan-21 22:02 050 2 gusting 6 4.9
2020-Jan-21 21:52 050 1 gusting 5 4.8
2020-Jan-21 21:42 050 4 gusting 7 4.7
2020-Jan-21 21:32 050 2 gusting 6 4.8
2020-Jan-21 21:22 040 2 gusting 4 4.8
2020-Jan-21 21:12 040 1 gusting 4 5.0
2020-Jan-21 21:02 040 1 gusting 4 5.0
2020-Jan-21 20:52 040 0 gusting 4 5.0
2020-Jan-21 20:42 020 1 gusting 5 4.9
2020-Jan-21 20:32 040 0 gusting 2 4.8
2020-Jan-21 20:22 020 2 gusting 7 4.7
2020-Jan-21 20:12 020 2 gusting 7 4.5
2020-Jan-21 20:02 010 5 gusting 8 4.4
2020-Jan-21 19:52 010 6 gusting 11 4.3
2020-Jan-21 19:42 010 6 gusting 9 4.3
2020-Jan-21 19:32 010 5 gusting 9 4.3
2020-Jan-21 19:22 010 5 gusting 9 4.3
2020-Jan-21 19:12 020 1 gusting 7 4.5
2020-Jan-21 19:02 050 0 gusting 4 4.5
2020-Jan-21 18:52 040 0 gusting 2 4.5
2020-Jan-21 18:42 020 2 gusting 6 4.5
2020-Jan-21 18:32 360 5 gusting 9 4.6
2020-Jan-21 18:22 350 6 gusting 8 4.5
2020-Jan-21 18:12 350 5 gusting 8 4.5
2020-Jan-21 18:02 350 6 gusting 8 4.4
2020-Jan-21 17:52 350 2 gusting 7 4.3
2020-Jan-21 17:42 030 0 gusting 2 4.1
2020-Jan-21 17:32 080 0 gusting 2 4.0
2020-Jan-21 17:22 080 1 gusting 2 3.8
2020-Jan-21 17:12 100 5 gusting 8 3.9
2020-Jan-21 17:02 130 2 gusting 9 4.4
2020-Jan-21 16:52 190 1 gusting 4 4.5
2020-Jan-21 16:42 200 0 gusting 4 4.7
2020-Jan-21 16:32 240 0 gusting 2 4.8
2020-Jan-21 16:22 270 1 gusting 2 4.7
2020-Jan-21 16:12 290 0 gusting 2 4.7
2020-Jan-21 16:02 290 0 gusting 1 4.6
2020-Jan-21 15:52 310 0 gusting 2 4.6
2020-Jan-21 15:42 310 0 gusting 1 4.7
2020-Jan-21 15:32 330 1 gusting 4 4.8
2020-Jan-21 15:22 350 2 gusting 6 4.8
2020-Jan-21 15:12 360 2 gusting 6 4.9
2020-Jan-21 15:02 5.1
2020-Jan-21 14:52 010 1 gusting 6 5.1
2020-Jan-21 14:42 5.0
2020-Jan-21 14:32 040 0 gusting 1 4.9
2020-Jan-21 14:22 030 0 gusting 5 4.9
2020-Jan-21 14:12 020 1 gusting 4 4.9
2020-Jan-21 14:02 020 1 gusting 6 5.1
2020-Jan-21 13:52 010 2 gusting 7 5.0
2020-Jan-21 13:42 030 1 gusting 6 4.8
2020-Jan-21 13:32 020 1 gusting 7 4.8
2020-Jan-21 13:22 020 1 gusting 6 4.7
2020-Jan-21 13:12 030 1 gusting 6 4.8
2020-Jan-21 13:02 030 1 gusting 6 4.8
2020-Jan-21 12:52 020 2 gusting 12 5.0
2020-Jan-21 12:42 020 2 gusting 8 5.1
2020-Jan-21 12:32 020 4 gusting 8 5.1
2020-Jan-21 12:22 020 4 gusting 9 5.2
2020-Jan-21 12:12 020 2 gusting 9 5.2
2020-Jan-21 12:02 020 2 gusting 8 5.1
2020-Jan-21 11:52 010 4 gusting 8 5.0
2020-Jan-21 11:42 020 2 gusting 8 4.9
2020-Jan-21 11:32 030 1 gusting 8 5.0
2020-Jan-21 11:22 010 5 gusting 11 5.0
2020-Jan-21 11:12 010 5 gusting 13 5.0
2020-Jan-21 11:02 020 2 gusting 8 5.0
2020-Jan-21 10:52 010 5 gusting 11 5.0
2020-Jan-21 10:42 010 6 gusting 13 5.0
2020-Jan-21 10:32 010 5 gusting 11 5.1
2020-Jan-21 10:22 010 6 gusting 9 5.0
2020-Jan-21 10:12 010 6 gusting 12 5.0
2020-Jan-21 10:02 010 6 gusting 11 4.9
2020-Jan-21 09:52 010 6 gusting 11 4.9
2020-Jan-21 09:42 020 2 gusting 9 5.0
2020-Jan-21 09:32 030 1 gusting 6 4.8
2020-Jan-21 09:22 040 1 gusting 4 4.7
2020-Jan-21 09:12 040 1 gusting 4 4.6
2020-Jan-21 09:02 030 1 gusting 6 4.6
2020-Jan-21 08:52 020 4 gusting 8 4.7
2020-Jan-21 08:42 010 6 gusting 12 4.5
2020-Jan-21 08:32 040 1 gusting 5 4.4
2020-Jan-21 08:22 040 2 gusting 5 4.4
2020-Jan-21 08:12 030 1 gusting 6 4.6
2020-Jan-21 08:02 030 2 gusting 13 4.6
2020-Jan-21 07:52 020 2 gusting 9 4.6
2020-Jan-21 07:42 020 1 gusting 7 4.7
2020-Jan-21 07:32 030 1 gusting 5 4.7
2020-Jan-21 07:22 020 5 gusting 11 4.6
2020-Jan-21 07:12 010 6 gusting 12 4.5
2020-Jan-21 07:02 010 6 gusting 12 4.6
2020-Jan-21 06:52 010 6 gusting 13 4.8
2020-Jan-21 06:42 020 4 gusting 9 4.7
2020-Jan-21 06:32 020 4 gusting 11 4.8
2020-Jan-21 06:22 020 2 gusting 9 4.7
2020-Jan-21 06:12 010 5 gusting 13 4.7
2020-Jan-21 06:02 010 7 gusting 13 4.8
2020-Jan-21 05:52 020 2 gusting 11 4.4
2020-Jan-21 05:42 040 1 gusting 6 4.3
2020-Jan-21 05:32 050 1 gusting 4 4.3
2020-Jan-21 05:22 060 2 gusting 6 4.2
2020-Jan-21 05:12 050 1 gusting 5 4.4
2020-Jan-21 05:02 030 0 gusting 4 4.6
2020-Jan-21 04:52 040 0 gusting 2 4.6
2020-Jan-21 04:42 040 0 gusting 2 4.5
2020-Jan-21 04:32 060 4 gusting 6 4.3
2020-Jan-21 04:22 060 4 gusting 6 4.3
2020-Jan-21 04:12 060 4 gusting 7 4.3
2020-Jan-21 04:02 050 2 gusting 7 4.5
2020-Jan-21 03:52 040 1 gusting 4 4.6
2020-Jan-21 03:42 070 4 gusting 7 4.4
2020-Jan-21 03:32 080 8 gusting 12 4.2
2020-Jan-21 03:22 070 6 gusting 12 4.4
2020-Jan-21 03:12 070 7 gusting 9 4.4
2020-Jan-21 03:02 070 8 gusting 9 4.3
2020-Jan-21 02:52 070 6 gusting 11 4.3
2020-Jan-21 02:42 070 6 gusting 9 4.2
2020-Jan-21 02:32 080 9 gusting 12 4.2
2020-Jan-21 02:22 090 8 gusting 11 4.2
2020-Jan-21 02:12 080 9 gusting 12 4.2
2020-Jan-21 02:02 070 8 gusting 13 4.4
2020-Jan-21 01:52 070 6 gusting 13 4.8
2020-Jan-21 01:42 050 2 gusting 11 4.8
2020-Jan-21 01:32 040 1 gusting 6 4.8
2020-Jan-21 01:22 030 1 gusting 5 4.8
2020-Jan-21 01:12 070 6 gusting 9 4.5
2020-Jan-21 01:02 090 9 gusting 13 4.5
2020-Jan-21 00:52 090 12 gusting 15 4.6
2020-Jan-21 00:42 100 13 gusting 15 4.7
2020-Jan-21 00:32 110 12 gusting 14 4.8
2020-Jan-21 00:22 100 13 gusting 14 4.7
2020-Jan-21 00:12 100 12 gusting 14 4.7
2020-Jan-20 23:52 100 13 gusting 15 4.8
2020-Jan-20 23:42 100 13 gusting 14 4.7
2020-Jan-20 23:32 110 13 gusting 14 4.6
2020-Jan-20 23:22 110 13 gusting 15 4.5
2020-Jan-20 23:12 110 13 gusting 17 4.5
2020-Jan-20 23:02 110 14 gusting 17 4.3
2020-Jan-20 22:52 110 15 gusting 19 4.3
2020-Jan-20 22:42 110 15 gusting 20 4.3
2020-Jan-20 22:32 110 14 gusting 20 4.2
2020-Jan-20 22:22 110 15 gusting 19 4.1
2020-Jan-20 22:12 110 14 gusting 18 4.2
2020-Jan-20 22:02 110 14 gusting 18 4.1
2020-Jan-20 21:52 110 15 gusting 20 4.2
2020-Jan-20 21:42 110 15 gusting 19 4.2
2020-Jan-20 21:32 110 14 gusting 19 4.2
2020-Jan-20 21:22 110 14 gusting 18 4.1
2020-Jan-20 21:12 110 13 gusting 18 4.1
2020-Jan-20 21:02 110 14 gusting 18 4.0
2020-Jan-20 20:52 110 15 gusting 19 3.9
2020-Jan-20 20:42 110 15 gusting 19 3.9
2020-Jan-20 20:32 110 15 gusting 19 3.8
2020-Jan-20 20:22 110 15 gusting 19 3.8
2020-Jan-20 20:12 120 15 gusting 19 3.9
2020-Jan-20 20:02 110 14 gusting 19 3.8
2020-Jan-20 19:52 110 14 gusting 19 3.7
2020-Jan-20 19:42 120 14 gusting 20 3.6
2020-Jan-20 19:32 110 15 gusting 20 3.6
2020-Jan-20 19:22 120 14 gusting 20 3.6
2020-Jan-20 19:12 110 13 gusting 18 3.6
2020-Jan-20 19:02 120 13 gusting 18 3.5
2020-Jan-20 18:52 120 14 gusting 18 3.5
2020-Jan-20 18:42 110 13 gusting 15 3.4
2020-Jan-20 18:32 120 12 gusting 15 3.4
2020-Jan-20 18:22 120 9 gusting 14 3.4
2020-Jan-20 18:12 120 8 gusting 13 3.5
2020-Jan-20 18:02 120 8 gusting 13 3.5
2020-Jan-20 17:52 120 7 gusting 12 3.5
2020-Jan-20 17:42 120 7 gusting 11 3.5
2020-Jan-20 17:32 120 8 gusting 11 3.6
2020-Jan-20 17:22 120 6 gusting 11 3.6
2020-Jan-20 17:12 120 7 gusting 11 3.6
2020-Jan-20 17:02 120 7 gusting 11 3.6
2020-Jan-20 16:52 120 6 gusting 9 3.6
2020-Jan-20 16:42 120 6 gusting 8 3.5
2020-Jan-20 16:32 100 2 gusting 5 3.5
2020-Jan-20 16:22 110 2 gusting 4 3.5
2020-Jan-20 16:12 110 2 gusting 5 3.4
2020-Jan-20 16:02 100 4 gusting 5 3.4
2020-Jan-20 15:52 090 2 gusting 4 3.4
2020-Jan-20 15:42 090 2 gusting 4 3.4
2020-Jan-20 15:32 110 2 gusting 4 3.5
2020-Jan-20 15:22 120 2 gusting 4 3.5
2020-Jan-20 15:12 130 1 gusting 5 3.5
2020-Jan-20 15:02 170 0 gusting 2 3.5
2020-Jan-20 14:52 140 1 gusting 4 3.4
2020-Jan-20 14:42 130 2 gusting 5 3.5
2020-Jan-20 14:32 130 4 gusting 7 3.5
2020-Jan-20 14:22 120 6 gusting 8 3.5
2020-Jan-20 14:12 110 6 gusting 8 3.5
2020-Jan-20 14:02 090 5 gusting 6 3.4